Home > Weather > Freiberg > Past weeks

Flag for Germany Past Weather in Freiberg, Saxony, Germany — Yesterday and Last 2 Weeks

Now
63 °F

Passing clouds.


Feels Like: 63 °F
Forecast: 52 / 67 °F
Wind: 8 mph from Northwest

Location: Dresden-Klotzsche

Current Time: Aug 30, 2016 at 1:47:00 AM

Latest Report: Aug 30, 2016 at 1:20 AM


Visibility: N/A

Pressure: 30.21 "Hg

Humidity: 73%

Dew Point: 54 °F

Location of FreibergLocation

Past Weather in Freiberg — Graph

°F

Freiberg Temperature Yesterday

Maximum temperature yesterday: 77 °F (at 2:20 PM)
Minimum temperature yesterday: 64 °F (at 10:50 PM)
Average temperature yesterday: 70 °F

High & Low Weather Summary for the Past Weeks

 TemperatureHumidityPressure
High90 °F (Aug 28, 2:20 PM)100% (Aug 15, 3:50 AM)30.36 "Hg (Aug 15, 3:50 AM)
Low46 °F (Aug 18, 5:20 AM)29% (Aug 28, 2:50 PM)29.80 "Hg (Aug 18, 3:50 PM)
Average67 °F66%30.08 "Hg
* Reported Aug 15 12:20 AM — Aug 30 12:20 AM, Freiberg, Weather by CustomWeather, © 2016

Note: Actual official high and low records may vary slightly from our data, if they occured in-between our weather recording intervals... More about our weather records

Advertising

Freiberg Weather History for the Previous 24 Hours

Scroll right to see more
 ConditionsComfort  
Time TempWeatherWind HumidityBarometerVisibility
12:20 AM
Tue, Aug 30
64 °FPassing clouds.5 mph68%30.18 "HgN/A
11:50 PM
Mon, Aug 29
64 °FPassing clouds.2 mph68%30.18 "HgN/A
11:20 PM64 °FPassing clouds.3 mph68%30.15 "HgN/A
10:50 PM64 °FPassing clouds.3 mph68%30.15 "HgN/A
10:20 PM66 °FPartly cloudy.5 mph68%30.15 "HgN/A
9:50 PM66 °FClear.3 mph68%30.12 "Hg10 mi
9:20 PM66 °FClear.5 mph64%30.12 "Hg10 mi
8:50 PM68 °FSunny.6 mph60%30.09 "Hg10 mi
8:20 PM68 °FPassing clouds.5 mph64%30.09 "HgN/A
7:50 PM70 °FSunny.6 mph57%30.09 "Hg10 mi
7:20 PM70 °FSunny.7 mph57%30.07 "Hg10 mi
6:50 PM72 °FSunny.7 mph50%30.07 "Hg10 mi
6:20 PM72 °FPassing clouds.10 mph53%30.07 "HgN/A
5:50 PM73 °FPassing clouds.13 mph47%30.04 "HgN/A
5:20 PM73 °FPassing clouds.12 mph50%30.04 "HgN/A
4:50 PM73 °FPassing clouds.14 mph47%30.04 "HgN/A
4:20 PM75 °FPassing clouds.15 mph44%30.04 "HgN/A
3:50 PM75 °FPassing clouds.10 mph41%30.04 "HgN/A
3:20 PM75 °FPassing clouds.13 mph44%30.04 "HgN/A
2:50 PM77 °FPassing clouds.12 mph42%30.04 "HgN/A
2:20 PM77 °FPassing clouds.13 mph39%30.04 "HgN/A
1:50 PM75 °FPassing clouds.13 mph47%30.04 "HgN/A
1:20 PM75 °FPassing clouds.15 mph47%30.04 "HgN/A
12:50 PM73 °FBroken clouds.14 mph50%30.04 "HgN/A
12:20 PM73 °FBroken clouds.12 mph50%30.04 "HgN/A
11:50 AM73 °FBroken clouds.14 mph50%30.04 "HgN/A
11:20 AM73 °FScattered clouds.10 mph53%30.04 "HgN/A
10:50 AM72 °FPassing clouds.9 mph61%30.04 "HgN/A
10:20 AM70 °FPartly sunny.8 mph69%30.04 "HgN/A
9:50 AM68 °FPartly sunny.6 mph78%30.04 "HgN/A
9:20 AM68 °FPartly sunny.8 mph78%30.04 "HgN/A
8:50 AM68 °FPassing clouds.6 mph83%30.04 "HgN/A
8:20 AM68 °FScattered clouds.5 mph83%30.01 "HgN/A
7:50 AM66 °FScattered clouds.5 mph88%30.01 "HgN/A
7:20 AM66 °FPartly sunny.5 mph88%30.01 "HgN/A
6:50 AM66 °FPassing clouds.3 mph88%29.98 "HgN/A
6:20 AM66 °FPassing clouds.2 mph88%29.98 "HgN/A
5:50 AM66 °FPartly cloudy.2 mph83%29.98 "HgN/A
5:20 AM66 °FPassing clouds.3 mph83%29.98 "HgN/A
4:50 AM66 °FPassing clouds.6 mph83%29.98 "HgN/A
4:20 AM68 °FPassing clouds.5 mph78%29.98 "HgN/A
3:50 AM68 °FClear.5 mph78%29.98 "Hg10 mi
3:20 AM66 °FClear.6 mph83%29.98 "Hg10 mi
2:50 AM66 °FClear.5 mph83%29.98 "Hg10 mi
2:20 AM66 °FClear.9 mph83%29.98 "Hg10 mi
1:50 AM66 °FClear.3 mph83%29.98 "Hg10 mi
1:20 AM66 °FClear.2 mph83%29.98 "Hg10 mi
Weather by CustomWeather, © 2016

See weather overviewHow to use our weather pages